Regional Weather Roundup
Issued by NWS

Home | Current Version | Previous Version | Text Only | Print | Product List | Glossary Off
Versions: 1 2 3 4 5 6 7 8 9 10 11 12 13 14 15 16 17 18 19 20 21 22 23 24 25 26 27 28 29 30 31 32 33 34 35 36 37 38 39 40 41 42 43 44 45 46 47 48 49 50

000
ASUS45 KBOU 021010
RWRCO

WEATHER ROUNDUP FOR COLORADO
NATIONAL WEATHER SERVICE PUEBLO CO
400 AM MDT SUN AUG 02 2015

NOTE: "FAIR" INDICATES FEW OR NO CLOUDS BELOW 12000 FEET WITH NO
SIGNIFICANT WEATHER AND/OR OBSTRUCTIONS TO VISIBILITY.

COZ001>005-013-030-031-021100-
...NORTHWEST COLORADO...

CITY           SKY/WX    TMP DP  RH WIND       PRES   REMARKS
CRAIG          CLEAR     50  43  77 CALM      30.19R
HAYDEN         CLEAR     55  39  54 E12       30.20S
MEEKER         PTCLDY    56  45  66 CALM      30.21R
MOUNT WERNER   NOT AVBL
STEAMBOAT SPGS FAIR      51  41  68 CALM      30.23F
WALDEN         FAIR      46  36  66 SE7       30.30S
$$

COZ006>008-011-021100-
...WEST CENTRAL VALLEYS...

CITY           SKY/WX    TMP DP  RH WIND       PRES   REMARKS
GRAND JUNCTION MOCLDY    69  52  54 E10       30.09S
MONTROSE       CLOUDY    66  53  63 SE10      30.19S
EAGLE          PTCLDY    59  45  58 E5        30.24S
RIFLE          CLOUDY    66  48  52 E5        30.15S
DELTA          NOT AVBL
NUCLA          CLOUDY    61  57  88 CALM      30.23S
$$

COZ017>023-064>068-021100-
...SOUTHWEST COLORADO...

CITY           SKY/WX    TMP DP  RH WIND       PRES   REMARKS
DURANGO        MOCLDY    57  54  89 N5        30.25S
CORTEZ         MOCLDY    62  58  86 E3        30.18S
PAGOSA SPRINGS FAIR      56  55  99 CALM      30.33S
TELLURIDE      MOCLDY    52  52  99 CALM      30.42S
WOLF CREEK PAS NOT AVBL
$$

COZ009-010-012-014-032>034-037-058>063-021100-
...CENTRAL COLORADO...

CITY           SKY/WX    TMP DP  RH WIND       PRES   REMARKS
ASPEN          CLOUDY    59  47  64 S3        30.29S
BUENA VISTA    FAIR      52  46  81 NW5       30.33S
COPPER MTN     PTCLDY    54  36  50 W8        30.62S
BERTHOUD PASS  FAIR      46  36  66 W13       30.66S
COTTONWOOD PAS MOCLDY    55  39  54 N5        30.45F
GUNNISON       CLOUDY    55  52  88 S3        30.36S
KREMMLING      CLEAR     50  37  62 CALM      30.29S
LEADVILLE      CLOUDY    51  43  74 E3        30.45F
MONARCH PASS   NOT AVBL
SALIDA         FAIR      60  48  65 CALM      30.37S
NIWOT RIDGE    NOT AVBL
SUNLIGHT       CLOUDY    55  41  58 CALM      30.54F
WILKERSON PASS MOCLDY    48  41  76 W6        30.58R
$$

COZ069>075-021100-
...SAN LUIS VALLEY/SANGRE DE CRISTO MOUNTAINS...

CITY           SKY/WX    TMP DP  RH WIND       PRES   REMARKS
ALAMOSA        MOCLDY    54  49  83 W3        30.30S
LA VETA PASS   PTCLDY    45  41  87 MISG      30.45F
SAGUACHE       CLOUDY    55  46  71 CALM      30.32F
$$

COZ035-036-038>040-021100-
...NORTHERN COLORADO FRONT RANGE...

CITY           SKY/WX    TMP DP  RH WIND       PRES   REMARKS
DENVER INTL AP MOCLDY    68  51  54 SW8       30.08S
DMNS CITY PARK NOT AVBL
AURORA         MOCLDY    66  48  51 SW7       30.11S
FRONT RANGE AP FAIR      64  45  48 W9        30.09F
ERIE MUNI ARPT FAIR      65  54  69 CALM      30.07S
BOULDER MUN AP FAIR      64  54  68 CALM      30.08S
CENTENNIAL     MOCLDY    69  46  43 SW7       30.13R
BROOMFIELD     PTCLDY    64  54  68 CALM      30.11S
LOVELAND       MOCLDY    63  54  72 N6        30.07F
LONGMONT       FAIR      65  55  67 SW3       30.08S
$$

COZ041-046-047-076>085-087-088-021100-
...PIKES PEAK/PALMER DIVIDE AND SOUTHERN FOOTHILLS...

CITY           SKY/WX    TMP DP  RH WIND       PRES   REMARKS
COLO. SPRINGS  MOCLDY    65  51  60 NW8       30.16F
A. F. ACADEMY  MOCLDY    56  47  72 N8        30.18F
ELLICOTT       FAIR     N/A N/A N/A NE3       30.15F
FALCON         FAIR      60  48  64 W6        30.21F
FORT CARSON    CLOUDY    61  54  77 NW12      30.11F
LIMON          MOCLDY    54  52  93 N7        30.09F
MONUMENT HILL  NOT AVBL
TRINIDAD       CLOUDY    67  52  58 SW17      30.11F
$$

COZ042>045-048>051-090-091-021100-
...NORTHEAST COLORADO...

CITY           SKY/WX    TMP DP  RH WIND       PRES   REMARKS
GREELEY ARPT   MOCLDY    63  54  72 N7        30.04F
AKRON          PTCLDY    63  57  81 E7        30.05S
BURLINGTON     PTCLDY    65  62  90 S5        30.02S
WRAY           FAIR      64  61  90 W6        29.98F
STERLING       FAIR      59  55  88 CALM      29.99F
HOLYOKE        NOT AVBL
FORT MORGAN    FAIR      63  55  76 NE7       30.04S
$$

COZ086-089-092>099-021100-
...SOUTHEAST COLORADO...

CITY           SKY/WX    TMP DP  RH WIND       PRES   REMARKS
PUEBLO         CLOUDY    69  58  67 SE8       30.04F
LA JUNTA       CLOUDY    69  58  67 S10       30.01F
LAMAR          MOCLDY    68  59  73 CALM      29.96S
SPRINGFIELD      N/A     65  61  87 S6        30.04S
$$




USA.gov is the U.S. government's official web portal to all federal, state and local government web resources and services.